Skip Page Navigation
NASA JPL Caltech
NASA Logo - Jet Propulsion Laboratory + View the NASA Portal
+ Center for Near-Earth Object Studies
JPL Home Earth Solar System Stars & Galaxies Technology
JPL Solar System Dynamics
BODIES ORBITS EPHEMERIDES TOOLS PHYSICAL DATA DISCOVERY FAQ SITE MAP
IMPORTANT: The SSD Announcement email list is now available. Major changes are coming in the near future, including possible hostname and/or URL changes. To be notified of such changes, subscribe to this email list.

Please visit this page for more details.


JPL Small-Body Database Browser
Search: [ help ]  
214572 (2006 QV36)
Classification: Main-belt Asteroid          SPK-ID: 2214572
Ephemeris | Orbit Diagram | Orbital Elements | Mission Design | Physical Parameters | Discovery Circumstances | Close-Approach Data ]

[ show orbit diagram ]
Orbital Elements at Epoch 2459000.5 (2020-May-31.0) TDB
Reference: JPL 14 (heliocentric ecliptic J2000)
 Element Value Uncertainty (1-sigma)   Units 
e .1925750910839203 4.4878e-08  
a 2.395045269925037 1.4166e-08 au
q 1.93381920891911 1.0854e-07 au
i 2.823207559317093 4.3977e-06 deg
node 40.16455961779922 0.00010605 deg
peri 237.7292522594046 0.00010669 deg
M 290.350501239888 1.1467e-05 deg
tp 2459262.429558791010
(2021-Feb-16.92955879)
4.3702e-05 TDB
period 1353.845222770872
3.71
1.2012e-05
3.289e-08
d
yr
n .2659092737818281 2.3592e-09 deg/d
Q 2.856271330930963 1.6894e-08 au
  Orbit Determination Parameters
   # obs. used (total)      262  
   data-arc span      8922 days (24.43 yr)  
   first obs. used      1995-08-29  
   last obs. used      2020-02-01  
   planetary ephem.      DE431  
   SB-pert. ephem.      SB431-N16  
   condition code      0  
   norm. resid. RMS      .56397  
   source      ORB  
   producer      Otto Matic  
   solution date      2020-Feb-25 03:12:45  

Additional Information
 Earth MOID = .91924 au 
 Jupiter MOID = 2.27706 au 
 T_jup = 3.502 
[ show covariance matrix ]

Ephemeris | Orbit Diagram | Orbital Elements | Mission Design | Physical Parameters | Discovery Circumstances | Close-Approach Data ]

Physical Parameter Table
Parameter Symbol Value Units Sigma Reference Notes
absolute magnitude H 17.0   n/a MPO422836  

214572 (2006 QV36)          Discovered 2006-Aug-16 by Siding Spring Survey at Siding Spring
Reference: 20090509/Numbers.arcLast Updated: 2009-05-11

[ show close-approach data ]
Alternate Designations
 2006 QV36 = 2005 CC55 
Ephemeris | Orbit Diagram | Orbital Elements | Mission Design | Physical Parameters | Discovery Circumstances | Close-Approach Data ]
ABOUT SSD CREDITS/AWARDS PRIVACY/COPYRIGHT GLOSSARY LINKS
FirstGov 2020-Apr-01 06:15 UT
(server date/time)  
NASA Home Page
Site Manager:   Ryan S. Park
Webmaster  Alan B. Chamberlin